Erie, PA

5:33 AM EST on November 18, 2017 (GMT -0500)
Erie International

Weather History for KERI - October, 2014

Change the Weather History Date:

Tuesday, October 28, 2014

  Actual Average Record
Temperature  
Mean Temperature 65 °F 49 °F  
Max Temperature 76 °F 57 °F 76 °F (1927)
Min Temperature 53 °F 42 °F 23 °F (1895)
Degree Days  
Heating Degree Days 0 16  
Month to date heating degree days 276 331  
Since 1 July heating degree days 393 455  
Cooling Degree Days 0 0  
Month to date cooling degree days 7 7  
Year to date cooling degree days 603 636  
Growing Degree Days 15 (Base 50)    
Moisture  
Dew Point 54 °F    
Average Humidity 65    
Maximum Humidity 80    
Minimum Humidity 49    
Precipitation  
Precipitation 0.12 in 0.12 in 0.68 in (2015)
Month to date precipitation 4.20 3.68  
Year to date precipitation 34.70 34.12  
Snow  
Snow 0.00 in 0.00 in - ()
Month to date snowfall 0.0 0.1  
Since 1 July snowfall 0.0 0.1  
Since 1 September snowfall 0.0 0.1  
Snow Depth 0.00 in    
Sea Level Pressure  
Sea Level Pressure 29.82 in    
Wind  
Wind Speed 14 mph (SW)    
Max Wind Speed 30 mph    
Max Gust Speed 39 mph    
Visibility 10 miles    
Events Rain    
T = Trace of Precipitation, MM = Missing Value Source: NWS Daily Summary

Daily Weather History Graph

Daily Weather History Graph

Search for Another Location

Airport or City:

Trip Planner

Search our weather history database for the weather conditions in past years. The results will help you decide how hot, cold, wet, or windy it might be!

Date:

Astronomy

Oct. 28, 2014 Rise Set
Actual Time 7:48 AM EDT 6:19 PM EDT
Civil Twilight 7:19 AM EDT 6:48 PM EDT
Nautical Twilight 6:46 AM EDT 7:21 PM EDT
Astronomical Twilight 6:14 AM EDT 7:53 PM EDT
Moon 12:18 PM EDT (10/28) 10:22 PM EDT (10/28)
Length of Visible Light 11h 28m
Length of Day
10h 31m
Waxing Crescent, 24% of the Moon is Illuminated
Oct 28
Waxing Crescent
Oct 30
First Quarter
Nov 6
Full
Nov 14
Last Quarter
Nov 22
New

Hourly Weather History & Observations

Time (EDT) Temp. Dew Point Humidity Pressure Visibility Wind Dir Wind Speed Gust Speed Precip Events Conditions
12:51 AM 70.0 °F 52.0 °F 53% 29.81 in 10.0 mi SSW 12.7 mph 21.9 mph N/A   Mostly Cloudy
1:51 AM 70.0 °F 54.0 °F 57% 29.81 in 10.0 mi South 10.4 mph - N/A   Mostly Cloudy
2:51 AM 69.1 °F 54.0 °F 58% 29.82 in 10.0 mi SSW 12.7 mph - N/A   Clear
3:51 AM 69.1 °F 54.0 °F 58% 29.82 in 10.0 mi SSW 12.7 mph - N/A   Clear
4:51 AM 69.1 °F 54.0 °F 58% 29.81 in 10.0 mi SSW 12.7 mph - N/A   Clear
5:51 AM 68.0 °F 54.0 °F 61% 29.81 in 10.0 mi South 11.5 mph - N/A   Clear
6:51 AM 68.0 °F 54.0 °F 61% 29.81 in 10.0 mi South 13.8 mph - N/A   Clear
7:51 AM 69.1 °F 54.0 °F 58% 29.81 in 10.0 mi South 15.0 mph 21.9 mph N/A   Clear
8:51 AM 69.1 °F 54.0 °F 58% 29.81 in 10.0 mi South 16.1 mph 25.3 mph N/A   Clear
9:51 AM 70.0 °F 55.0 °F 59% 29.81 in 10.0 mi SSW 20.7 mph 28.8 mph N/A   Clear
10:51 AM 72.0 °F 55.0 °F 55% 29.80 in 10.0 mi SSW 21.9 mph 29.9 mph N/A   Clear
11:51 AM 73.0 °F 55.9 °F 55% 29.79 in 10.0 mi SSW 23.0 mph 28.8 mph N/A   Scattered Clouds
12:51 PM 73.9 °F 55.9 °F 53% 29.77 in 10.0 mi SSW 23.0 mph 39.1 mph N/A   Mostly Cloudy
1:51 PM 73.9 °F 55.9 °F 53% 29.75 in 10.0 mi SSW 23.0 mph 33.4 mph N/A   Mostly Cloudy
2:51 PM 75.0 °F 55.0 °F 50% 29.75 in 10.0 mi SW 16.1 mph 31.1 mph N/A   Mostly Cloudy
3:51 PM 73.0 °F 54.0 °F 51% 29.75 in 10.0 mi SSW 12.7 mph 20.7 mph N/A   Overcast
4:51 PM 66.0 °F 54.0 °F 65% 29.78 in 10.0 mi West 16.1 mph 27.6 mph N/A   Overcast
5:51 PM 63.0 °F 55.0 °F 75% 29.81 in 10.0 mi WSW 12.7 mph 20.7 mph N/A   Overcast
6:18 PM 62.6 °F 53.6 °F 72% 29.82 in 10.0 mi WSW 13.8 mph 27.6 mph N/A   Overcast
6:38 PM 60.8 °F 55.4 °F 82% 29.83 in 10.0 mi West 13.8 mph 23.0 mph N/A   Overcast
6:42 PM 60.8 °F 53.6 °F 77% 29.83 in 10.0 mi WSW 13.8 mph 23.0 mph 0.00 in Rain Light Rain
6:48 PM 59.0 °F 53.6 °F 82% 29.84 in 5.0 mi WSW 15.0 mph 20.7 mph 0.01 in Rain Rain
6:51 PM 59.0 °F 54.0 °F 83% 29.83 in 3.0 mi WSW 17.3 mph 25.3 mph 0.03 in Rain Rain
7:18 PM 57.2 °F 53.6 °F 88% 29.84 in 10.0 mi WSW 8.1 mph - 0.05 in   Overcast
7:51 PM 57.9 °F 53.1 °F 84% 29.84 in 10.0 mi SW 6.9 mph - 0.09 in   Overcast
8:51 PM 57.0 °F 52.0 °F 83% 29.86 in 10.0 mi SW 8.1 mph - N/A   Partly Cloudy
9:03 PM 57.2 °F 51.8 °F 82% 29.87 in 10.0 mi SW 9.2 mph - N/A   Mostly Cloudy
9:37 PM 57.2 °F 51.8 °F 82% 29.88 in 10.0 mi SW 10.4 mph 17.3 mph N/A   Partly Cloudy
9:51 PM 57.0 °F 50.0 °F 77% 29.88 in 10.0 mi WSW 11.5 mph 19.6 mph N/A   Partly Cloudy
10:51 PM 55.4 °F 48.2 °F 77% 29.90 in 10.0 mi SW 10.4 mph 19.6 mph N/A   Clear
11:51 PM 54.0 °F 46.0 °F 75% 29.91 in 10.0 mi SW 8.1 mph - N/A   Clear